Date String (YYYY-MM-DD hh:mm:ss) UTC,Instrument flags,Ambient pressure (hPa),Sample flow (lpm),Bypass flow (lpm),Sample temperature (°C),Ambient temperature (°C),ASC tube jacket temperature (°C),LED temperature (°C),Box temperature (°C),Sample RH (%),Span deviation,Mass concentration (μg/m³),Mass concentration (μg/m³),Mass concentration (μg/m³)
DateTimeUTC,F1_M11,P_M11,Q1_M11,Q2_M11,T1_M11,T2_M11,T3_M11,T4_M11,T5_M11,U1_M11,ZSPAN_M11,X0_M11,X2_M11,X1_M11
2022-03-06 21:00:00,,0824.5,4.99,0.00,23.0,23.4,00.0,32.0,24.9,08.0,0000.0,0007.82,0005.23,0005.11
2022-03-06 21:01:00,,0824.4,5.01,0.00,23.1,23.3,00.0,32.0,25.0,08.2,0000.0,0007.67,0005.09,0004.98
2022-03-06 21:02:00,,0824.4,5.00,0.00,23.1,23.1,00.0,32.0,25.0,08.4,0000.0,0007.57,0004.99,0004.88
2022-03-06 21:03:00,,0824.5,5.00,0.00,23.1,22.9,00.0,32.0,24.9,08.3,0000.0,0007.53,0004.94,0004.82
2022-03-06 21:04:00,,0824.4,5.00,0.00,23.1,22.7,00.0,32.0,24.9,08.5,0000.0,0007.46,0004.88,0004.76
2022-03-06 21:05:00,,0824.5,4.99,0.00,23.1,22.6,00.0,32.0,24.8,08.5,0000.0,0007.46,0004.86,0004.72
2022-03-06 21:06:00,,0824.4,5.00,0.00,23.0,22.5,00.0,32.0,24.8,08.7,0000.0,0007.43,0004.82,0004.68
2022-03-06 21:07:00,,0824.4,5.00,0.00,23.0,22.4,00.0,32.0,24.7,09.0,0000.0,0007.36,0004.78,0004.63
2022-03-06 21:08:00,,0824.4,5.00,0.00,23.0,22.3,00.0,32.0,24.7,08.6,0000.0,0007.25,0004.74,0004.59
2022-03-06 21:09:00,,0824.5,4.99,0.00,23.0,22.2,00.0,32.0,24.7,08.6,0000.0,0007.21,0004.71,0004.57
2022-03-06 21:10:00,,0824.4,5.01,0.00,22.9,22.2,00.0,32.0,24.6,08.4,0000.0,0006.65,0004.69,0004.55
2022-03-06 21:11:00,,0824.4,5.00,0.00,22.9,22.1,00.0,31.9,24.6,08.6,0000.0,0006.22,0004.67,0004.54
2022-03-06 21:12:00,,0824.5,5.00,0.00,22.9,22.5,00.0,32.0,24.7,08.8,0000.0,0006.15,0004.65,0004.53
2022-03-06 21:13:00,,0824.5,4.99,0.00,23.1,23.3,00.0,32.0,24.9,08.8,0000.0,0006.10,0004.63,0004.51
2022-03-06 21:14:00,,0824.5,4.99,0.00,23.2,23.5,00.0,32.0,25.0,08.5,0000.0,0006.05,0004.59,0004.47
2022-03-06 21:15:00,,0824.5,5.02,0.00,23.2,23.3,00.0,32.0,25.0,08.6,0000.0,0005.97,0004.54,0004.42
2022-03-06 21:16:00,,0824.5,5.01,0.00,23.2,23.1,00.0,32.0,25.0,08.7,0000.0,0005.92,0004.51,0004.38
2022-03-06 21:17:00,,0824.5,5.00,0.00,23.1,22.9,00.0,32.0,24.9,08.6,0000.0,0005.99,0004.50,0004.36
2022-03-06 21:18:00,,0824.6,5.00,0.00,23.1,22.6,00.0,32.0,24.9,08.4,0000.0,0005.93,0004.45,0004.32
2022-03-06 21:19:00,,0824.6,5.01,0.00,23.1,22.5,00.0,32.0,24.8,08.3,0000.0,0005.96,0004.43,0004.29
2022-03-06 21:20:00,,0824.6,5.00,0.00,23.1,22.4,00.0,32.0,24.8,08.5,0000.0,0005.91,0004.40,0004.27
2022-03-06 21:21:00,,0824.6,4.99,0.00,23.0,22.4,00.0,32.0,24.7,08.6,0000.0,0005.84,0004.38,0004.24
2022-03-06 21:22:00,,0824.6,5.00,0.00,23.0,22.3,00.0,32.0,24.7,08.5,0000.0,0005.80,0004.35,0004.22
2022-03-06 21:23:00,,0824.6,5.00,0.00,23.0,22.2,00.0,32.0,24.7,08.4,0000.0,0005.81,0004.34,0004.20
2022-03-06 21:24:00,,0824.6,5.01,0.00,22.9,22.2,00.0,32.0,24.7,08.7,0000.0,0005.79,0004.32,0004.18
2022-03-06 21:25:00,,0824.6,5.00,0.00,22.9,22.1,00.0,32.0,24.6,08.7,0000.0,0005.70,0004.30,0004.17
2022-03-06 21:26:00,,0824.6,5.01,0.00,22.9,22.1,00.0,32.0,24.6,08.8,0000.0,0005.67,0004.29,0004.18
2022-03-06 21:27:00,,0824.7,5.00,0.00,23.0,22.5,00.0,32.0,24.7,08.3,0000.0,0005.64,0004.29,0004.18
2022-03-06 21:28:00,,0824.6,4.99,0.00,23.1,23.2,00.0,32.0,24.9,08.2,0000.0,0005.57,0004.27,0004.17
2022-03-06 21:29:00,,0824.6,5.01,0.00,23.2,23.4,00.0,32.1,25.0,08.4,0000.0,0005.53,0004.26,0004.16
2022-03-06 21:30:00,,0824.6,5.00,0.00,23.2,23.2,00.0,32.1,25.0,08.5,0000.0,0005.54,0004.26,0004.16
2022-03-06 21:31:00,,0824.6,5.00,0.00,23.2,23.0,00.0,32.1,25.0,08.4,0000.0,0005.43,0004.21,0004.13
2022-03-06 21:32:00,,0824.7,4.99,0.00,23.2,22.8,00.0,32.1,24.9,08.5,0000.0,0005.45,0004.20,0004.11
2022-03-06 21:33:00,,0824.7,5.00,0.00,23.1,22.7,00.0,32.1,24.9,08.7,0000.0,0005.56,0004.20,0004.09
2022-03-06 21:34:00,,0824.7,5.01,0.00,23.1,22.5,00.0,32.1,24.8,08.6,0000.0,0005.58,0004.20,0004.08
2022-03-06 21:35:00,,0824.8,4.99,0.00,23.1,22.4,00.0,32.1,24.7,08.4,0000.0,0005.64,0004.18,0004.06
2022-03-06 21:36:00,,0824.8,4.99,0.00,23.0,22.4,00.0,32.0,24.7,08.4,0000.0,0005.71,0004.18,0004.05
2022-03-06 21:37:00,,0824.8,5.00,0.00,23.0,22.3,00.0,32.0,24.7,08.6,0000.0,0005.68,0004.15,0004.02
2022-03-06 21:38:00,,0824.9,5.00,0.00,23.0,22.2,00.0,32.0,24.6,08.4,0000.0,0005.66,0004.13,0003.98
2022-03-06 21:39:00,,0824.9,5.00,0.00,22.9,22.1,00.0,32.0,24.6,08.3,0000.0,0005.56,0004.09,0003.95
2022-03-06 21:40:00,,0824.8,5.00,0.00,22.9,22.3,00.0,32.0,24.7,08.6,0000.0,0005.51,0004.05,0003.92
2022-03-06 21:41:00,,0824.9,5.01,0.00,23.0,23.1,00.0,32.0,24.9,08.8,0000.0,0005.43,0004.02,0003.88
2022-03-06 21:42:00,,0824.9,4.99,0.00,23.2,23.6,00.0,32.1,25.1,08.6,0000.0,0005.40,0003.99,0003.86
2022-03-06 21:43:00,,0824.9,5.00,0.00,23.2,23.4,00.0,32.1,25.1,08.1,0000.0,0005.29,0003.94,0003.81
2022-03-06 21:44:00,,0824.9,5.00,0.00,23.2,23.2,00.0,32.1,25.0,07.9,0000.0,0005.11,0003.89,0003.77
2022-03-06 21:45:00,,0824.9,5.00,0.00,23.2,23.0,00.0,32.1,25.0,08.1,0000.0,0005.06,0003.86,0003.74
2022-03-06 21:46:00,,0824.9,5.00,0.00,23.2,22.8,00.0,32.1,24.9,08.2,0000.0,0004.87,0003.84,0003.72
2022-03-06 21:47:00,,0824.9,5.00,0.00,23.1,22.6,00.0,32.1,24.8,08.3,0000.0,0004.78,0003.82,0003.72
2022-03-06 21:48:00,,0824.9,5.00,0.00,23.1,22.5,00.0,32.1,24.8,08.3,0000.0,0004.76,0003.82,0003.72
2022-03-06 21:49:00,,0824.9,5.00,0.00,23.0,22.4,00.0,32.1,24.7,08.2,0000.0,0004.68,0003.80,0003.72
2022-03-06 21:50:00,,0824.9,5.00,0.00,23.0,22.3,00.0,32.1,24.7,08.4,0000.0,0004.64,0003.80,0003.73
2022-03-06 21:51:00,,0824.9,5.01,0.00,23.0,22.2,00.0,32.0,24.7,08.5,0000.0,0004.64,0003.80,0003.73
2022-03-06 21:52:00,,0824.9,5.00,0.00,23.0,22.1,00.0,32.0,24.6,08.4,0000.0,0004.60,0003.80,0003.74
2022-03-06 21:53:00,,0824.9,5.00,0.00,22.9,22.1,00.0,32.0,24.6,08.3,0000.0,0004.57,0003.80,0003.74
2022-03-06 21:54:00,,0824.9,5.02,0.00,22.9,22.0,00.0,32.0,24.6,08.4,0000.0,0004.59,0003.81,0003.76
2022-03-06 21:55:00,,0824.9,5.00,0.00,22.9,22.0,00.0,32.0,24.6,08.4,0000.0,0004.58,0003.82,0003.78
2022-03-06 21:56:00,,0824.9,4.99,0.00,22.9,22.5,00.0,32.0,24.7,08.4,0000.0,0004.58,0003.83,0003.79
2022-03-06 21:57:00,,0824.9,5.00,0.00,23.1,23.3,00.0,32.0,24.9,08.4,0000.0,0004.59,0003.83,0003.79
2022-03-06 21:58:00,,0824.9,5.00,0.00,23.2,23.7,00.0,32.1,25.1,08.3,0000.0,0004.55,0003.81,0003.77
2022-03-06 21:59:00,,0825.0,4.99,0.00,23.2,23.4,00.0,32.1,25.1,08.4,0000.0,0004.51,0003.78,0003.74
